Home > Weather > Las Cruces > Past weeks

Flag for USA Past Weather in Las Cruces, New Mexico, USA — Yesterday and Last 2 Weeks

Now
74 °F

Partly sunny.


Feels Like: 77 °F
Forecast: 71 / 91 °F
Wind: No wind

Location: Las Cruces International

Current Time: Jul 27, 2016 at 9:33:07 AM

Latest Report: Jul 27, 2016 at 8:55 AM


Visibility: 10 mi

Pressure: 30.19 "Hg (26.33 "Hg at 1187m altitude)

Humidity: 64%

Dew Point: 61 °F

Location of Las CrucesLocation

Past Weather in Las Cruces — Graph

°F

Las Cruces Temperature Yesterday

Maximum temperature yesterday: 95 °F (at 2:55 PM)
Minimum temperature yesterday: 75 °F (at 4:35 AM)
Average temperature yesterday: 85 °F

High & Low Weather Summary for the Past Weeks

 TemperatureHumidityPressure
High105 °F (Jul 14, 4:15 PM)80% (Jul 27, 5:15 AM)30.27 "Hg (Jul 27, 5:15 AM)
Low65 °F (Jul 18, 6:35 AM)6% (Jul 14, 4:15 PM)29.95 "Hg (Jul 23, 6:15 PM)
Average87 °F25%30.11 "Hg
* Reported Jul 12 8:15 AM — Jul 27 8:15 AM, Las Cruces, Weather by CustomWeather, © 2016

Note: Actual official high and low records may vary slightly from our data, if they occured in-between our weather recording intervals... More about our weather records

Advertising

Las Cruces Weather History for the Previous 24 Hours

Scroll right to see more
 ConditionsComfort  
Time TempWeatherWind HumidityBarometerVisibility
8:15 AM
Wed, Jul 27
71 °FSunny.No wind75%30.18 "Hg10 mi
7:55 AM71 °FSunny.3 mph76%30.17 "Hg10 mi
7:15 AM70 °FClear.7 mph77%30.16 "Hg10 mi
6:55 AM69 °FPassing clouds.8 mph77%30.16 "Hg10 mi
6:35 AM69 °FPassing clouds.8 mph78%30.16 "Hg10 mi
5:55 AM69 °FClear.8 mph80%30.16 "Hg10 mi
5:35 AM69 °FClear.7 mph80%30.16 "Hg10 mi
5:15 AM69 °FThundershowers. Passing clouds.6 mph80%30.16 "Hg10 mi
4:55 AM69 °FPassing clouds.6 mph79%30.17 "Hg10 mi
4:15 AM70 °FPartly cloudy.7 mph79%30.16 "Hg10 mi
3:55 AM71 °FOvercast.8 mph75%30.16 "Hg10 mi
3:15 AM71 °FOvercast.6 mph75%30.15 "Hg10 mi
2:55 AM72 °FThundershowers. Mostly cloudy.7 mph73%30.14 "Hg10 mi
2:15 AM78 °FDrizzle. Overcast.5 mph50%30.14 "Hg10 mi
1:55 AM79 °FOvercast.8 mph44%30.12 "Hg10 mi
1:15 AM79 °FOvercast.8 mph43%30.11 "Hg10 mi
12:55 AM80 °FOvercast.9 mph42%30.12 "Hg10 mi
12:35 AM80 °FOvercast.7 mph40%30.11 "Hg10 mi
12:15 AM81 °FPassing clouds.9 mph38%30.11 "Hg10 mi
11:55 PM
Tue, Jul 26
82 °FClear.10 mph35%30.11 "Hg10 mi
11:35 PM83 °FPassing clouds.8 mph33%30.10 "Hg10 mi
11:15 PM83 °FPassing clouds.7 mph32%30.10 "Hg10 mi
10:55 PM84 °FOvercast.8 mph30%30.10 "Hg10 mi
10:35 PM85 °FPassing clouds.7 mph31%30.10 "Hg10 mi
10:15 PM84 °FClear.5 mph33%30.09 "Hg10 mi
9:55 PM83 °FThundershowers. Clear.5 mph34%30.08 "Hg10 mi
9:35 PM84 °FClear.5 mph33%30.07 "Hg10 mi
9:15 PM85 °FClear.5 mph33%30.06 "Hg10 mi
8:55 PM85 °FSunny.5 mph33%30.06 "Hg10 mi
8:35 PM86 °FSunny.6 mph32%30.05 "Hg10 mi
8:15 PM86 °FSunny.8 mph31%30.05 "Hg10 mi
7:55 PM87 °FScattered clouds.7 mph29%30.04 "Hg10 mi
7:15 PM90 °FBroken clouds.10 mph25%30.03 "Hg10 mi
6:55 PM90 °FPartly sunny.14 mph25%30.03 "Hg10 mi
6:15 PM92 °FSunny.No wind22%30.02 "Hg10 mi
5:55 PM92 °FSunny.No wind22%30.03 "Hg10 mi
5:15 PM93 °FSunny.No wind20%30.03 "Hg10 mi
4:55 PM93 °FSunny.6 mph20%30.03 "Hg10 mi
4:35 PM93 °FSunny.8 mph21%30.04 "Hg10 mi
4:15 PM94 °FScattered clouds.10 mph22%30.04 "Hg10 mi
3:55 PM92 °FScattered clouds.12 mph25%30.05 "Hg10 mi
3:15 PM94 °FSunny.5 mph21%30.07 "Hg10 mi
2:55 PM95 °FSunny.6 mph21%30.08 "Hg10 mi
2:35 PM93 °FScattered clouds.7 mph22%30.08 "Hg10 mi
2:15 PM93 °FThundershowers. Partly sunny.13 mph22%30.09 "Hg10 mi
1:55 PM94 °FScattered clouds.6 mph22%30.10 "Hg10 mi
1:35 PM94 °FSunny.5 mph23%30.11 "Hg10 mi
1:15 PM93 °FSunny.5 mph24%30.12 "Hg10 mi
12:55 PM91 °FSunny.No wind26%30.14 "Hg10 mi
12:15 PM89 °FSunny.8 mph30%30.15 "Hg10 mi
11:55 AM87 °FSunny.3 mph31%30.16 "Hg10 mi
11:15 AM85 °FSunny.3 mph34%30.16 "Hg10 mi
10:55 AM85 °FSunny.No wind34%30.17 "Hg10 mi
10:35 AM84 °FSunny.5 mph33%30.18 "Hg10 mi
10:15 AM84 °FSunny.3 mph33%30.18 "Hg10 mi
9:55 AM86 °FSunny.3 mph31%30.18 "Hg10 mi
9:35 AM85 °FSunny.7 mph32%30.18 "Hg10 mi
9:15 AM85 °FSunny.7 mph33%30.19 "Hg10 mi
Weather by CustomWeather, © 2016

See weather overviewHow to use our weather pages